FW9150 Weather Reports


Display with metric or nautical units.
time (UTC)temp
F
wind
direction
speed
MPH
gust
MPH
rain 1hr
in
rain 24hr
in
rain mn
in
humidity
%
barometer
mb
20260509181211 76 70 1.0 3.0 0.00 0.00 0.00 33 1022.4
20260509180212 76 230 0.0 3.0 0.00 0.00 0.00 35 1022.4
20260509175310 75 118 0.0 1.0 0.00 0.00 0.00 36 1022.4
20260509174313 74 224 1.0 1.0 0.00 0.00 0.00 37 1022.5
20260509173312 74 284 0.0 2.0 0.00 0.00 0.00 36 1022.3
20260509172326 73 135 1.0 2.0 0.00 0.00 0.00 37 1022.4
20260509171314 73 157 1.0 2.0 0.00 0.00 0.00 35 1022.3
20260509170412 73 157 2.0 2.0 0.00 0.00 0.00 35 1022.4
20260509165412 72 157 1.0 1.0 0.00 0.00 0.00 37 1022.5
20260509164413 70 157 0.0 0.0 0.00 0.00 0.00 40 1022.5
20260509163412 69 202 0.0 0.0 0.00 0.00 0.00 41 1022.6
20260509162411 68 157 0.0 1.0 0.00 0.00 0.00 44 1022.4
20260509161414 66 135 1.0 2.0 0.00 0.00 0.00 48 1022.6
20260509160414 64 135 0.0 2.0 0.00 0.00 0.00 51 1022.6
20260509154412 60 135 0.0 1.0 0.00 0.00 0.00 56 1022.6
20260509152510 58 67 0.0 0.0 0.00 0.00 0.00 64 1022.6
20260509145512 54 67 0.0 0.0 0.00 0.00 0.00 64 1022.6
20260509142710 52 67 0.0 0.0 0.00 0.00 0.00 66 1022.4
20260509140810 51 67 0.0 0.0 0.00 0.00 0.00 64 1022.4
20260509135811 51 67 0.0 0.0 0.00 0.00 0.00 64 1022.2
20260509134910 51 67 0.0 0.0 0.00 0.00 0.00 65 1022.1
20260509133912 50 67 0.0 0.0 0.00 0.00 0.00 65 1022.1
20260509131912 50 67 0.0 0.0 0.00 0.00 0.00 65 1021.9
20260509130911 50 67 0.0 0.0 0.00 0.00 0.00 65 1022.1
20260509125911 50 67 0.0 0.0 0.00 0.00 0.00 66 1022.1
20260509124013 50 67 0.0 0.0 0.00 0.00 0.00 67 1022.1
20260509123110 50 67 0.0 0.0 0.00 0.00 0.00 67 1022.1
20260509121112 50 67 0.0 0.0 0.00 0.00 0.00 68 1022.0
20260509120112 50 67 0.0 0.0 0.00 0.00 0.00 68 1021.9
20260509115210 50 67 0.0 0.0 0.00 0.00 0.00 67 1022.0
20260509114212 50 67 0.0 0.0 0.00 0.00 0.00 70 1021.9
20260509113227 50 67 0.0 0.0 0.00 0.00 0.00 70 1022.1
20260509112210 50 67 0.0 0.0 0.00 0.00 0.00 70 1022.2
20260509111212 51 67 0.0 0.0 0.00 0.00 0.00 70 1022.1
20260509110211 50 67 0.0 0.0 0.00 0.00 0.00 70 1022.1
20260509105211 50 67 0.0 0.0 0.00 0.00 0.00 70 1022.1
20260509104213 51 67 0.0 0.0 0.00 0.00 0.00 70 1022.1
20260509103212 51 67 0.0 0.0 0.00 0.00 0.00 70 1022.2
20260509102212 51 67 0.0 0.0 0.00 0.00 0.00 69 1022.2
20260509101210 50 67 0.0 0.0 0.00 0.00 0.00 70 1022.2
20260509100212 51 67 0.0 0.0 0.00 0.00 0.00 70 1022.3
20260509095310 51 67 0.0 0.0 0.00 0.00 0.00 69 1022.4
20260509094311 51 67 0.0 0.0 0.00 0.00 0.00 69 1022.3
20260509093313 51 67 0.0 0.0 0.00 0.00 0.00 68 1022.5
20260509092312 51 67 0.0 0.0 0.00 0.00 0.00 69 1022.4
20260509091311 51 67 0.0 0.0 0.00 0.00 0.00 69 1022.6
20260509085410 51 67 0.0 0.0 0.00 0.00 0.00 69 1022.4
20260509084510 52 67 0.0 0.0 0.00 0.00 0.00 69 1022.6
20260509083511 52 67 0.0 0.0 0.00 0.00 0.00 68 1022.7
20260509081511 52 67 0.0 0.0 0.00 0.00 0.00 69 1022.7
20260509080512 52 67 0.0 0.0 0.00 0.00 0.00 70 1022.8
20260509075513 52 67 0.0 0.0 0.00 0.00 0.00 70 1022.9
20260509073610 52 67 0.0 0.0 0.00 0.00 0.00 68 1022.8
20260509070713 52 67 0.0 0.0 0.00 0.00 0.00 67 1022.9
20260509065715 52 67 0.0 0.0 0.00 0.00 0.00 68 1022.9
20260509064715 52 67 0.0 0.0 0.00 0.00 0.00 68 1023.0
20260509063716 53 67 0.0 0.0 0.00 0.00 0.00 68 1023.2
20260509062716 53 67 0.0 0.0 0.00 0.00 0.00 69 1023.1
20260509061716 53 67 0.0 0.0 0.00 0.00 0.00 71 1023.1
20260509060714 53 67 0.0 0.0 0.00 0.00 0.00 72 1023.0
20260509055716 53 67 0.0 0.0 0.00 0.00 0.00 72 1023.0
20260509054730 53 67 0.0 0.0 0.00 0.00 0.00 73 1023.2
20260509053816 53 67 0.0 0.0 0.00 0.00 0.00 74 1023.1
20260509052815 52 67 0.0 0.0 0.00 0.00 0.00 74 1023.2
20260509051914 52 67 0.0 0.0 0.00 0.00 0.00 74 1023.0
20260509051813 52 67 0.0 0.0 0.00 0.00 0.00 74 1023.1
20260509050814 53 67 0.0 0.0 0.00 0.00 0.00 73 1023.1
20260509045815 53 67 0.0 0.0 0.00 0.00 0.00 73 1023.0
20260509044814 54 67 0.0 0.0 0.00 0.00 0.00 73 1023.0
20260509043814 54 67 0.0 0.0 0.00 0.00 0.00 72 1023.1
20260509042914 54 67 0.0 0.0 0.00 0.00 0.00 71 1023.2
20260509041917 55 67 0.0 0.0 0.00 0.00 0.00 70 1023.0
20260509040930 55 67 0.0 0.0 0.00 0.00 0.00 70 1023.0
20260509035914 56 67 0.0 0.0 0.00 0.00 0.00 71 1023.1
20260509034113 57 90 0.0 0.0 0.00 0.00 0.00 70 1023.1
20260509033114 57 90 0.0 0.0 0.00 0.00 0.00 69 1023.0
20260509032117 58 90 0.0 0.0 0.00 0.00 0.00 67 1023.0
20260509031214 59 90 0.0 0.0 0.00 0.00 0.00 66 1023.0
20260509030313 59 90 0.0 0.0 0.00 0.00 0.00 64 1023.0
20260509025316 59 90 0.0 0.0 0.00 0.00 0.00 64 1023.0
20260509023414 61 90 0.0 0.0 0.00 0.00 0.00 62 1023.0
20260509022414 61 90 0.0 0.0 0.00 0.00 0.00 60 1022.8
20260509020416 62 90 0.0 0.0 0.00 0.00 0.00 59 1022.9
20260509015416 63 90 0.0 0.0 0.00 0.00 0.00 58 1022.9
20260509014514 63 135 0.0 0.0 0.00 0.00 0.00 57 1022.9
20260509013515 64 135 0.0 0.0 0.00 0.00 0.00 55 1022.9
20260509012514 64 112 0.0 0.0 0.00 0.00 0.00 53 1023.0
20260509011513 65 22 0.0 2.0 0.00 0.00 0.00 51 1023.0
20260509010531 65 157 0.0 0.0 0.00 0.00 0.00 49 1023.0
20260509005614 66 157 0.0 0.0 0.00 0.00 0.00 48 1023.0
20260509004614 66 270 0.0 0.0 0.00 0.00 0.00 46 1023.1
20260509003615 66 202 0.0 0.0 0.00 0.00 0.00 43 1023.1
20260509002632 67 180 0.0 1.0 0.00 0.00 0.00 41 1023.2
20260509001615 67 45 0.0 0.0 0.00 0.00 0.00 39 1023.2
20260509000614 67 45 0.0 0.0 0.00 0.00 0.00 37 1023.2
20260508235713 68 79 0.0 4.0 0.00 0.00 0.00 35 1023.3
20260508234715 68 230 0.0 1.0 0.00 0.00 0.00 35 1023.3
20260508233715 68 1 0.0 2.0 0.00 0.00 0.00 35 1023.2
20260508232714 69 154 0.0 4.0 0.00 0.00 0.00 36 1023.4
20260508231714 69 202 0.0 1.0 0.00 0.00 0.00 35 1023.3
20260508230715 69 135 0.0 1.0 0.00 0.00 0.00 36 1023.4
20260508225715 69 232 0.0 3.0 0.00 0.00 0.00 36 1023.5
20260508223814 70 72 0.0 1.0 0.00 0.00 0.00 37 1023.6
20260508222814 70 161 0.0 3.0 0.00 0.00 0.00 38 1023.7
20260508221815 70 165 2.0 5.0 0.00 0.00 0.00 37 1023.8
20260508220915 70 352 1.0 3.0 0.00 0.00 0.00 36 1023.8
20260508215013 71 259 0.0 2.0 0.00 0.00 0.00 34 1023.8
20260508214016 71 121 0.0 2.0 0.00 0.00 0.00 33 1023.9
20260508212131 71 166 3.0 4.0 0.00 0.00 0.00 33 1024.3
20260508211215 71 179 2.0 4.0 0.00 0.00 0.00 32 1024.1
20260508210214 71 190 0.0 2.0 0.00 0.00 0.00 30 1024.1
20260508205217 73 174 2.0 4.0 0.00 0.00 0.00 30 1024.1
20260508204229 74 155 0.0 4.0 0.00 0.00 0.00 29 1024.2
20260508203229 74 157 0.0 3.0 0.00 0.00 0.00 30 1024.2
20260508201214 73 225 2.0 2.0 0.00 0.00 0.00 29 1024.2
20260508200214 73 202 1.0 2.0 0.00 0.00 0.00 29 1024.5
20260508194215 74 168 2.0 4.0 0.00 0.00 0.00 30 1024.5
20260508193216 73 225 1.0 2.0 0.00 0.00 0.00 28 1024.6
20260508192213 74 175 3.0 6.0 0.00 0.00 0.00 29 1024.4
20260508191213 72 181 1.0 7.0 0.00 0.00 0.00 29 1024.5
20260508184214 74 170 1.0 3.0 0.00 0.00 0.00 26 1024.6
20260508183213 73 157 0.0 0.0 0.00 0.00 0.00 25 1024.8